Tyler, TX

8:42 PM CST on February 07, 2016 (GMT -0600)
Tyler Pounds

Weather History for KTYR - August, 2014

Change the Weather History Date:

Thursday, August 28, 2014

  Actual Average Record
Temperature  
Mean Temperature 85 °F 82 °F  
Max Temperature 97 °F 91 °F 106 °F (2011)
Min Temperature 73 °F 72 °F 56 °F (1992)
Degree Days  
Heating Degree Days 0 0  
Month to date heating degree days 0 0  
Since 1 June heating degree days 0 0  
Since 1 July heating degree days 0 0  
Cooling Degree Days 20 17  
Month to date cooling degree days 530 516  
Year to date cooling degree days 1910 1874  
Since 1 June cooling degree days 1517 1505  
Growing Degree Days 34 (Base 50)    
Moisture  
Dew Point 68 °F    
Average Humidity 59    
Maximum Humidity 79    
Minimum Humidity 39    
Precipitation  
Precipitation 0.00 in 0.10 in 2.80 in (1946)
Month to date precipitation 0.04 2.52  
Year to date precipitation 21.33 28.92  
Snow  
Snow 0.00 in - - ()
Month to date snowfall 0.0  
Since 1 June snowfall 0.0  
Since 1 July snowfall 0.0  
Snow Depth 0.00 in    
Sea Level Pressure  
Sea Level Pressure 29.92 in    
Wind  
Wind Speed 7 mph (SSE)    
Max Wind Speed 17 mph    
Max Gust Speed 22 mph    
Visibility 10 miles    
Events      
T = Trace of Precipitation, MM = Missing Value Source: NWS Daily Summary

Daily Weather History Graph

Daily Weather History Graph

Search for Another Location

Airport or City:

Trip Planner

Search our weather history database for the weather conditions in past years. The results will help you decide how hot, cold, wet, or windy it might be!

Date:

Astronomy

Aug. 28, 2014 Rise Set
Actual Time 6:54 AM CDT 7:50 PM CDT
Civil Twilight 6:28 AM CDT 8:16 PM CDT
Nautical Twilight 5:59 AM CDT 8:45 PM CDT
Astronomical Twilight 5:28 AM CDT 9:16 PM CDT
Moon 9:35 AM CDT (8/28) 9:29 PM CDT (8/28)
Length of Visible Light 13h 47m
Length of Day
12h 56m
Waxing Crescent, 9% of the Moon is Illuminated
Aug 28
Waxing Crescent
Sep 2
First Quarter
Sep 8
Full
Sep 15
Last Quarter
Sep 24
New

Hourly Weather History & Observations

Time (CDT) Temp. Heat Index Dew Point Humidity Pressure Visibility Wind Dir Wind Speed Gust Speed Precip Events Conditions
12:53 AM 77.0 °F - 64.9 °F 66% 29.97 in 10.0 mi ESE 5.8 mph - N/A   Clear
1:53 AM 77.0 °F - 64.9 °F 66% 29.97 in 10.0 mi SE 4.6 mph - N/A   Clear
2:53 AM 75.9 °F - 66.0 °F 71% 29.96 in 10.0 mi SSE 4.6 mph - N/A   Clear
3:53 AM 75.9 °F - 66.9 °F 74% 29.95 in 10.0 mi SE 6.9 mph - N/A   Mostly Cloudy
4:53 AM 75.9 °F - 66.9 °F 74% 29.95 in 10.0 mi SE 5.8 mph - N/A   Overcast
5:53 AM 73.9 °F - 66.9 °F 79% 29.95 in 10.0 mi Calm Calm - N/A   Scattered Clouds
6:53 AM 75.0 °F - 68.0 °F 79% 29.95 in 10.0 mi SE 3.5 mph - N/A   Partly Cloudy
7:53 AM 78.1 °F - 69.1 °F 74% 29.95 in 10.0 mi ESE 3.5 mph - N/A   Partly Cloudy
8:53 AM 84.0 °F 89.0 °F 71.1 °F 65% 29.96 in 10.0 mi Calm Calm - N/A   Overcast
10:53 AM 87.1 °F 92.0 °F 70.0 °F 57% 29.98 in 10.0 mi SE 9.2 mph 18.4 mph N/A   Scattered Clouds
11:53 AM 91.0 °F 95.6 °F 69.1 °F 48% 29.97 in 10.0 mi SSE 9.2 mph 17.3 mph N/A   Partly Cloudy
12:53 PM 90.0 °F 94.5 °F 69.1 °F 50% 29.95 in 10.0 mi South 9.2 mph - N/A   Scattered Clouds
1:53 PM 91.9 °F 95.9 °F 68.0 °F 45% 29.93 in 10.0 mi ESE 9.2 mph - N/A   Overcast
2:53 PM 95.0 °F 99.0 °F 66.9 °F 40% 29.91 in 10.0 mi SSE 13.8 mph - N/A   Scattered Clouds
3:53 PM 95.0 °F 99.0 °F 66.9 °F 40% 29.88 in 10.0 mi South 9.2 mph 17.3 mph N/A   Scattered Clouds
4:53 PM 95.0 °F 97.9 °F 66.0 °F 38% 29.86 in 10.0 mi SE 10.4 mph - N/A   Partly Cloudy
5:53 PM 93.9 °F 97.0 °F 66.0 °F 40% 29.84 in 10.0 mi SSE 11.5 mph - N/A   Clear
6:45 PM 91.4 °F 94.0 °F 66.2 °F 43% 29.86 in 10.0 mi SSE 10.4 mph - N/A   Partly Cloudy
6:53 PM 91.9 °F 95.4 °F 66.9 °F 44% 29.83 in 10.0 mi SSE 11.5 mph - N/A   Clear
7:53 PM 87.1 °F 92.0 °F 70.0 °F 57% 29.85 in 10.0 mi South 9.2 mph - N/A   Clear
8:53 PM 84.0 °F 88.4 °F 70.0 °F 63% 29.87 in 10.0 mi SSE 6.9 mph - N/A   Clear
9:53 PM 82.0 °F 86.3 °F 71.1 °F 69% 29.90 in 10.0 mi SSE 6.9 mph - N/A   Clear
10:53 PM 82.0 °F 86.3 °F 71.1 °F 69% 29.91 in 10.0 mi SSE 8.1 mph - N/A   Mostly Cloudy
11:53 PM 81.0 °F 84.9 °F 71.1 °F 72% 29.92 in 10.0 mi SSE 5.8 mph - N/A   Overcast